Date,Installs,Update checks
2016-03-05,2,0
2016-03-06,6,3
2016-03-07,7,8
2016-03-08,3,7
2016-03-09,1,11
2016-03-10,2,6
2016-03-11,5,4
2016-03-12,9,13
2016-03-13,7,9
2016-03-14,1,18
2016-03-15,1,14
2016-03-16,0,19
2016-03-17,2,12
2016-03-18,3,18
2016-03-19,3,15
2016-03-20,4,16
2016-03-21,3,14
2016-03-22,2,22
2016-03-23,2,20
2016-03-24,0,17
2016-03-25,5,17
2016-03-26,3,24
2016-03-27,2,18
2016-03-28,3,19
2016-03-29,3,18
2016-03-30,1,22
2016-03-31,0,24
2016-04-01,4,20
2016-04-02,1,19
2016-04-03,2,21
2016-04-04,0,22
2016-04-05,2,27
2016-04-06,0,23
2016-04-07,4,26
2016-04-08,4,25
2016-04-09,3,22
2016-04-10,2,19
2016-04-11,7,30
2016-04-12,7,28
2016-04-13,1,27
2016-04-14,2,27
2016-04-15,4,24
2016-04-16,2,26
2016-04-17,2,31
2016-04-18,2,27
2016-04-19,5,35
2016-04-20,2,29
2016-04-21,7,36
2016-04-22,7,30
2016-04-23,5,29
2016-04-24,10,32
2016-04-25,5,42
2016-04-26,7,41
2016-04-27,8,42
2016-04-28,8,41
2016-04-29,0,39
2016-04-30,5,40
2016-05-01,2,35
2016-05-02,4,38
2016-05-03,2,49
2016-05-04,3,41
2016-05-05,5,51
2016-05-06,3,39
2016-05-07,7,49
2016-05-08,1,38
2016-05-09,4,52
2016-05-10,2,46
2016-05-11,0,50
2016-05-12,2,43
2016-05-13,4,51
2016-05-14,7,44
2016-05-15,9,60
2016-05-16,4,55
2016-05-17,3,55
2016-05-18,1,62
2016-05-19,1,54
2016-05-20,2,60
2016-05-21,6,58
2016-05-22,3,66
2016-05-23,2,72
2016-05-24,3,67
2016-05-25,3,83
2016-05-26,3,74
2016-05-27,2,77
2016-05-28,1,75
2016-05-29,1,65
2016-05-30,2,83
2016-05-31,4,80
2016-06-01,2,89
2016-06-02,2,79
2016-06-03,3,90
2016-06-04,2,81
2016-06-05,2,75
2016-06-06,9,95
2016-06-07,2,81
2016-06-08,1,90
2016-06-09,5,84
2016-06-10,5,96
2016-06-11,3,69
2016-06-12,2,92
2016-06-13,7,86
2016-06-14,2,100
2016-06-15,2,88
2016-06-16,7,101
2016-06-17,9,91
2016-06-18,5,93
2016-06-19,4,86
2016-06-20,1,100
2016-06-21,6,89
2016-06-22,5,101
2016-06-23,0,96
2016-06-24,1,92
2016-06-25,2,111
2016-06-26,2,88
2016-06-27,6,101
2016-06-28,5,102
2016-06-29,3,110
2016-06-30,5,116
2016-07-01,9,109
2016-07-02,8,105
2016-07-03,6,100
2016-07-04,10,110
2016-07-05,12,111
2016-07-06,4,114
2016-07-07,7,119
2016-07-08,9,115
2016-07-09,9,117
2016-07-10,10,126
2016-07-11,6,125
2016-07-12,4,128
2016-07-13,16,135
2016-07-14,8,137
2016-07-15,13,131
2016-07-16,5,137
2016-07-17,7,123
2016-07-18,3,138
2016-07-19,3,147
2016-07-20,3,140
2016-07-21,5,136
2016-07-22,6,145
2016-07-23,4,125
2016-07-24,4,150
2016-07-25,3,139
2016-07-26,14,155
2016-07-27,12,162
2016-07-28,4,146
2016-07-29,5,150
2016-07-30,9,154
2016-07-31,19,133
2016-08-01,12,169
2016-08-02,11,162
2016-08-03,10,156
2016-08-04,7,162
2016-08-05,9,177
2016-08-06,8,162
2016-08-07,10,155
2016-08-08,8,186
2016-08-09,4,174
2016-08-10,8,190
2016-08-11,4,173
2016-08-12,3,172
2016-08-13,4,162
2016-08-14,6,175
2016-08-15,7,171
2016-08-16,5,177
2016-08-17,6,162
2016-08-18,10,188
2016-08-19,0,186
2016-08-20,12,177
2016-08-21,6,172
2016-08-22,13,227
2016-08-23,1,176
2016-08-24,6,210
2016-08-25,4,167
2016-08-26,8,198
2016-08-27,10,179
2016-08-28,7,212
2016-08-29,6,195
2016-08-30,8,205
2016-08-31,5,198
2016-09-01,6,207
2016-09-02,9,193
2016-09-03,7,205
2016-09-04,6,204
2016-09-05,7,212
2016-09-06,5,202
2016-09-07,4,204
2016-09-08,9,209
2016-09-09,7,208
2016-09-10,4,208
2016-09-11,8,201
2016-09-12,4,214
2016-09-13,6,221
2016-09-14,10,217
2016-09-15,11,224
2016-09-16,8,203
2016-09-17,4,214
2016-09-18,5,217
2016-09-19,7,235
2016-09-20,4,231
2016-09-21,2,239
2016-09-22,6,227
2016-09-23,7,219
2016-09-24,1,208
2016-09-25,4,221
2016-09-26,5,241
2016-09-27,6,237
2016-09-28,7,232
2016-09-29,8,251
2016-09-30,13,225
2016-10-01,20,233
2016-10-02,15,210
2016-10-03,12,255
2016-10-04,10,261
2016-10-05,10,262
2016-10-06,11,256
2016-10-07,53,285
2016-10-08,17,283
2016-10-09,12,284
2016-10-10,9,293
2016-10-11,6,300
2016-10-12,9,314
2016-10-13,10,300
2016-10-14,18,292
2016-10-15,11,284
2016-10-16,8,290
2016-10-17,7,310
2016-10-18,4,300
2016-10-19,13,325
2016-10-20,9,293
2016-10-21,14,312
2016-10-22,9,281
2016-10-23,19,304
2016-10-24,3,320
2016-10-25,9,335
2016-10-26,10,322
2016-10-27,10,349
2016-10-28,14,330
2016-10-29,6,323
2016-10-30,5,299
2016-10-31,10,353
2016-11-01,6,338
2016-11-02,11,345
2016-11-03,8,361
2016-11-04,11,348
2016-11-05,10,326
2016-11-06,8,346
2016-11-07,5,351
2016-11-08,11,347
2016-11-09,14,356
2016-11-10,12,356
2016-11-11,12,363
2016-11-12,10,349
2016-11-13,13,328
2016-11-14,6,389
2016-11-15,10,359
2016-11-16,8,373
2016-11-17,8,367
2016-11-18,8,363
2016-11-19,12,368
2016-11-20,18,355
2016-11-21,12,387
2016-11-22,17,383
2016-11-23,6,381
2016-11-24,10,385
2016-11-25,4,383
2016-11-26,8,345
2016-11-27,7,364
2016-11-28,8,402
2016-11-29,17,380
2016-11-30,12,392
2016-12-01,10,384
2016-12-02,12,391
2016-12-03,19,370
2016-12-04,10,394
2016-12-05,6,415
2016-12-06,6,389
2016-12-07,16,413
2016-12-08,12,397
2016-12-09,11,425
2016-12-10,13,377
2016-12-11,13,407
2016-12-12,11,417
2016-12-13,11,394
2016-12-14,12,393
2016-12-15,10,423
2016-12-16,10,394
2016-12-17,6,398
2016-12-18,5,408
2016-12-19,7,417
2016-12-20,4,414
2016-12-21,13,424
2016-12-22,10,408
2016-12-23,18,410
2016-12-24,8,407
2016-12-25,13,363
2016-12-26,18,412
2016-12-27,12,415
2016-12-28,12,431
2016-12-29,15,403
2016-12-30,14,426
2016-12-31,11,375
2017-01-01,10,403
2017-01-02,11,428
2017-01-03,9,426
2017-01-04,13,432
2017-01-05,16,453
2017-01-06,16,430
2017-01-07,17,450
2017-01-08,15,457
2017-01-09,14,459
2017-01-10,13,482
2017-01-11,11,470
2017-01-12,12,455
2017-01-13,8,476
2017-01-14,10,447
2017-01-15,11,461
2017-01-16,10,461
2017-01-17,14,458
2017-01-18,19,479
2017-01-19,13,479
2017-01-20,8,475
2017-01-21,11,442
2017-01-22,16,449
2017-01-23,18,494
2017-01-24,3,471
2017-01-25,7,486
2017-01-26,24,480
2017-01-27,16,466
2017-01-28,12,437
2017-01-29,16,476
2017-01-30,11,495
2017-01-31,15,509
2017-02-01,19,528
2017-02-02,14,528
2017-02-03,16,515
2017-02-04,13,504
2017-02-05,14,503
2017-02-06,11,566
2017-02-07,5,517
2017-02-08,9,535
2017-02-09,10,512
2017-02-10,9,556
2017-02-11,11,502
2017-02-12,12,523
2017-02-13,18,522
2017-02-14,19,523
2017-02-15,18,550
2017-02-16,15,526
2017-02-17,12,531
2017-02-18,12,512
2017-02-19,17,532
2017-02-20,8,550
2017-02-21,5,544
2017-02-22,9,547
2017-02-23,10,570
2017-02-24,13,516
2017-02-25,12,513
2017-02-26,17,551
2017-02-27,17,565
2017-02-28,9,549
2017-03-01,17,557
2017-03-02,9,550
2017-03-03,10,590
2017-03-04,12,516
2017-03-05,9,562
2017-03-06,15,598
2017-03-07,12,591
2017-03-08,10,609
2017-03-09,11,553
2017-03-10,6,591
2017-03-11,11,508
2017-03-12,17,571
2017-03-13,12,567
2017-03-14,14,582
2017-03-15,12,583
2017-03-16,12,580
2017-03-17,15,549
2017-03-18,12,543
2017-03-19,14,551
2017-03-20,6,613
2017-03-21,18,581
2017-03-22,5,606
2017-03-23,10,574
2017-03-24,24,612
2017-03-25,13,544
2017-03-26,9,616
2017-03-27,20,600
2017-03-28,16,593
2017-03-29,32,608
2017-03-30,36,614
2017-03-31,34,632
2017-04-01,28,636
2017-04-02,20,622
2017-04-03,13,666
2017-04-04,14,621
2017-04-05,9,677
2017-04-06,9,624
2017-04-07,16,657
2017-04-08,13,591
2017-04-09,11,592
2017-04-10,15,651
2017-04-11,24,628
2017-04-12,13,679
2017-04-13,11,609
2017-04-14,3,617
2017-04-15,9,594
2017-04-16,14,569
2017-04-17,11,606
2017-04-18,7,655
2017-04-19,11,640
2017-04-20,12,667
2017-04-21,12,595
2017-04-22,7,17
2017-04-23,11,865
2017-04-24,16,482
2017-04-25,13,766
2017-04-26,5,547
2017-04-27,8,753
2017-04-28,12,570
2017-04-29,16,692
2017-04-30,14,539
2017-05-01,13,715
2017-05-02,6,610
2017-05-03,14,728
2017-05-04,9,637
2017-05-05,14,727
2017-05-06,9,590
2017-05-07,15,704
2017-05-08,13,655
2017-05-09,12,708
2017-05-10,11,645
2017-05-11,9,697
2017-05-12,11,681
2017-05-13,15,674
2017-05-14,9,623
2017-05-15,14,749
2017-05-16,9,633
2017-05-17,14,743
2017-05-18,12,666
2017-05-19,8,686
2017-05-20,10,611
2017-05-21,32,696
2017-05-22,14,690
2017-05-23,11,747
2017-05-24,4,665
2017-05-25,13,720
2017-05-26,11,676
2017-05-27,12,681
2017-05-28,8,656
2017-05-29,13,723
2017-05-30,13,709
2017-05-31,12,748
2017-06-01,18,695
2017-06-02,16,707
2017-06-03,12,655
2017-06-04,25,697
2017-06-05,24,702
2017-06-06,22,748
2017-06-07,15,725
2017-06-08,25,760
2017-06-09,18,713
2017-06-10,12,733
2017-06-11,17,698
2017-06-12,11,784
2017-06-13,12,728
2017-06-14,11,760
2017-06-15,19,714
2017-06-16,17,752
2017-06-17,13,690
2017-06-18,19,712
2017-06-19,23,757
2017-06-20,17,755
2017-06-21,20,756
2017-06-22,18,752
2017-06-23,15,720
2017-06-24,22,747
2017-06-25,23,694
2017-06-26,17,820
2017-06-27,16,718
2017-06-28,19,805
2017-06-29,14,752
2017-06-30,25,793
2017-07-01,14,718
2017-07-02,31,746
2017-07-03,25,797
2017-07-04,16,788
2017-07-05,16,771
2017-07-06,20,826
2017-07-07,10,762
2017-07-08,13,779
2017-07-09,17,773
2017-07-10,20,856
2017-07-11,19,806
2017-07-12,11,830
2017-07-13,18,800
2017-07-14,23,797
2017-07-15,18,778
2017-07-16,17,798
2017-07-17,9,848
2017-07-18,12,840
2017-07-19,14,820
2017-07-20,12,848
2017-07-21,12,1080
2017-07-22,13,729
2017-07-23,15,914
2017-07-24,12,880
2017-07-25,17,928
2017-07-26,27,700
2017-07-27,20,976
2017-07-28,12,857
2017-07-29,13,857
2017-07-30,15,854
2017-07-31,14,949
2017-08-01,16,861
2017-08-02,9,877
2017-08-03,14,905
2017-08-04,12,843
2017-08-05,27,843
2017-08-06,16,867
2017-08-07,25,939
2017-08-08,10,892
2017-08-09,8,885
2017-08-10,11,905
2017-08-11,13,892
2017-08-12,17,858
2017-08-13,17,852
2017-08-14,26,906
2017-08-15,13,880
2017-08-16,16,859
2017-08-17,14,920
2017-08-18,17,885
2017-08-19,20,859
2017-08-20,15,881
2017-08-21,20,877
2017-08-22,19,890
2017-08-23,17,725
2017-08-24,22,892
2017-08-25,18,866
2017-08-26,23,863
2017-08-27,24,873
2017-08-28,19,878
2017-08-29,14,872
2017-08-30,20,836
2017-08-31,15,904
2017-09-01,17,856
2017-09-02,15,870
2017-09-03,23,866
2017-09-04,9,906
2017-09-05,20,936
2017-09-06,13,698
2017-09-07,21,905
2017-09-08,23,875
2017-09-09,29,858
2017-09-10,15,910
2017-09-11,15,929
2017-09-12,15,919
2017-09-13,11,714
2017-09-14,22,942
2017-09-15,14,856
2017-09-16,15,882
2017-09-17,20,867
2017-09-18,9,941
2017-09-19,18,886
2017-09-20,18,917
2017-09-21,20,903
2017-09-22,23,930
2017-09-23,21,886
2017-09-24,20,884
2017-09-25,15,947
2017-09-26,7,904
2017-09-27,29,936
2017-09-28,19,865
2017-09-29,25,946
2017-09-30,27,870
2017-10-01,18,879
2017-10-02,17,934
2017-10-03,24,969
2017-10-04,25,912
2017-10-05,24,921
2017-10-06,24,887
2017-10-07,23,923
2017-10-08,21,902
2017-10-09,21,961
2017-10-10,15,969
2017-10-11,17,914
2017-10-12,28,927
2017-10-13,19,960
2017-10-14,27,945
2017-10-15,14,942
2017-10-16,24,981
2017-10-17,9,963
2017-10-18,19,970
2017-10-19,32,969
2017-10-20,24,910
2017-10-21,34,979
2017-10-22,25,954
2017-10-23,20,1003
2017-10-24,16,1013
2017-10-25,18,993
2017-10-26,27,949
2017-10-27,16,1011
2017-10-28,20,953
2017-10-29,26,958
2017-10-30,16,1058
2017-10-31,13,1002
2017-11-01,16,1012
2017-11-02,18,1027
2017-11-03,17,1001
2017-11-04,29,1010
2017-11-05,16,1020
2017-11-06,14,690
2017-11-07,25,1122
2017-11-08,18,1032
2017-11-09,15,1073
2017-11-10,28,1053
2017-11-11,17,1010
2017-11-12,18,1010
2017-11-13,21,1058
2017-11-14,25,1020
2017-11-15,32,1023
2017-11-16,26,992
2017-11-17,16,984
2017-11-18,25,930
2017-11-19,22,926
2017-11-20,18,995
2017-11-21,22,989
2017-11-22,20,968
2017-11-23,22,1002
2017-11-24,18,980
2017-11-25,25,892
2017-11-26,40,977
2017-11-27,28,1078
2017-11-28,23,1024
2017-11-29,32,1064
2017-11-30,39,1073
2017-12-01,31,1096
2017-12-02,13,1015
2017-12-03,13,1043
2017-12-04,27,1090
2017-12-05,26,1065
2017-12-06,26,1093
2017-12-07,17,1103
2017-12-08,17,1054
2017-12-09,20,1066
2017-12-10,24,1082
2017-12-11,28,1100
2017-12-12,20,1095
2017-12-13,16,1107
2017-12-14,20,1083
2017-12-15,29,1089
2017-12-16,19,1021
2017-12-17,34,1054
2017-12-18,21,1097
2017-12-19,14,1092
2017-12-20,21,1044
2017-12-21,12,1074
2017-12-22,19,1058
2017-12-23,27,1030
2017-12-24,16,953
2017-12-25,20,1043
2017-12-26,21,1063
2017-12-27,26,1075
2017-12-28,26,1071
2017-12-29,21,1086
2017-12-30,48,1006
2017-12-31,22,971
2018-01-01,33,1079
2018-01-02,38,1143
2018-01-03,29,1141
2018-01-04,42,1143
2018-01-05,27,1162
2018-01-06,31,1106
2018-01-07,21,1095
2018-01-08,27,1163
2018-01-09,19,1180
2018-01-10,14,1163
2018-01-11,27,1190
2018-01-12,22,1174
2018-01-13,27,1130
2018-01-14,21,1130
2018-01-15,23,1213
2018-01-16,21,1211
2018-01-17,25,1205
2018-01-18,23,1177
2018-01-19,22,1154
2018-01-20,22,1140
2018-01-21,29,1110
2018-01-22,22,1230
2018-01-23,26,1203
2018-01-24,28,1198
2018-01-25,16,1183
2018-01-26,24,1172
2018-01-27,31,1172
2018-01-28,32,1188
2018-01-29,23,1290
2018-01-30,21,1218
2018-01-31,22,1212
2018-02-01,27,1228
2018-02-02,24,1184
2018-02-03,20,1161
2018-02-04,30,1196
2018-02-05,27,1284
2018-02-06,21,1266
2018-02-07,25,1247
2018-02-08,13,1198
2018-02-09,24,1297
2018-02-10,26,1244
2018-02-11,33,1261
2018-02-12,25,1288
2018-02-13,24,1280
2018-02-14,25,1225
2018-02-15,29,1258
2018-02-16,28,1202
2018-02-17,17,1186
2018-02-18,22,1194
2018-02-19,21,1300
2018-02-20,12,1229
2018-02-21,33,1279
2018-02-22,23,1318
2018-02-23,26,1287
2018-02-24,31,1285
2018-02-25,26,1216
2018-02-26,29,1356
2018-02-27,23,1340
2018-02-28,13,1345
2018-03-01,25,1297
2018-03-02,36,1311
2018-03-03,22,1279
2018-03-04,36,1282
2018-03-05,30,1345
2018-03-06,38,1317
2018-03-07,19,1339
2018-03-08,23,1353
2018-03-09,17,1286
2018-03-10,28,1301
2018-03-11,31,1297
2018-03-12,28,1340
2018-03-13,22,1382
2018-03-14,23,1354
2018-03-15,12,1351
2018-03-16,19,1388
2018-03-17,15,1254
2018-03-18,21,1302
2018-03-19,15,1395
2018-03-20,11,1331
2018-03-21,17,1365
2018-03-22,16,1386
2018-03-23,19,1382
2018-03-24,19,1228
2018-03-25,14,1298
2018-03-26,15,1411
2018-03-27,16,1389
2018-03-28,17,1348
2018-03-29,18,1336
2018-03-30,15,1323
2018-03-31,23,1247
2018-04-01,14,1278
2018-04-02,17,1358
2018-04-03,24,1371
2018-04-04,10,1339
2018-04-05,28,1354
2018-04-06,21,1303
2018-04-07,34,1258
2018-04-08,34,1300
2018-04-09,40,1408
2018-04-10,26,1388
2018-04-11,20,1377
2018-04-12,19,1343
2018-04-13,14,1368
2018-04-14,21,1289
2018-04-15,27,1319
2018-04-16,20,1379
2018-04-17,14,1391
2018-04-18,19,1371
2018-04-19,13,1401
2018-04-20,19,1360
2018-04-21,29,1288
2018-04-22,50,1324
2018-04-23,34,1428
2018-04-24,28,1438
2018-04-25,33,1384
2018-04-26,28,1412
2018-04-27,22,1433
2018-04-28,28,1379
2018-04-29,26,1349
2018-04-30,35,1370
2018-05-01,26,1365
2018-05-02,30,1435
2018-05-03,17,1437
2018-05-04,12,1427
2018-05-05,28,1326
2018-05-06,30,1366
2018-05-07,25,1483
2018-05-08,35,1442
2018-05-09,18,1460
2018-05-10,26,1402
2018-05-11,23,1459
2018-05-12,27,1359
2018-05-13,32,1421
2018-05-14,17,1533
2018-05-15,26,1469
2018-05-16,20,1444
2018-05-17,28,1446
2018-05-18,25,1395
2018-05-19,28,1038
2018-05-20,30,1494
2018-05-21,25,1500
2018-05-22,28,1521
2018-05-23,34,1481
2018-05-24,29,1482
2018-05-25,17,1456
2018-05-26,28,1378
2018-05-27,22,1418
2018-05-28,25,1500
2018-05-29,30,1493
2018-05-30,22,1533
2018-05-31,20,1470
2018-06-01,22,1464
2018-06-02,19,1194
2018-06-03,249,1464
2018-06-04,125,1545
2018-06-05,44,1594
2018-06-06,39,1547
2018-06-07,28,1589
2018-06-08,27,1519
2018-06-09,36,1455
2018-06-10,31,1463
2018-06-11,30,1568
2018-06-12,15,1482
2018-06-13,14,1563
2018-06-14,17,1545
2018-06-15,25,1495
2018-06-16,25,1451
2018-06-17,22,1499
2018-06-18,19,1484
2018-06-19,25,1608
2018-06-20,20,1399
2018-06-21,28,1418
2018-06-22,26,1570
2018-06-23,28,1472
2018-06-24,39,1488
2018-06-25,25,1612
2018-06-26,25,1598
2018-06-27,21,1531
2018-06-28,23,1584
2018-06-29,29,1539
2018-06-30,35,1479
2018-07-01,27,1504
2018-07-02,24,1617
2018-07-03,34,1577
2018-07-04,24,1522
2018-07-05,29,1587
2018-07-06,20,1544
2018-07-07,17,1439
2018-07-08,23,1514
2018-07-09,24,1570
2018-07-10,20,1567
2018-07-11,18,1565
2018-07-12,19,1532
2018-07-13,25,1510
2018-07-14,23,1415
2018-07-15,24,1515
2018-07-16,36,1529
2018-07-17,32,1566
2018-07-18,19,1544
2018-07-19,22,1553
2018-07-20,21,1521
2018-07-21,19,1468
2018-07-22,36,1470
2018-07-23,25,1592
2018-07-24,31,1534
2018-07-25,29,1558
2018-07-26,31,1514
2018-07-27,17,1555
2018-07-28,25,1462
2018-07-29,32,1448
2018-07-30,23,1575
2018-07-31,26,1577
2018-08-01,25,1563
2018-08-02,25,1502
2018-08-03,35,1518
2018-08-04,31,1464
2018-08-05,22,1466
2018-08-06,27,1539
2018-08-07,33,1520
2018-08-08,40,1562
2018-08-09,34,1496
2018-08-10,23,1527
2018-08-11,30,1441
2018-08-12,30,1424
2018-08-13,28,1555
2018-08-14,25,1564
2018-08-15,25,1544
2018-08-16,23,1490
2018-08-17,20,1519
2018-08-18,25,1442
2018-08-19,24,1455
2018-08-20,15,1521
2018-08-21,23,1569
2018-08-22,23,1496
2018-08-23,28,1552
2018-08-24,26,1523
2018-08-25,30,1495
2018-08-26,26,1458
2018-08-27,22,1583
2018-08-28,25,1582
2018-08-29,25,1573
2018-08-30,30,1550
2018-08-31,26,1569
2018-09-01,27,1477
2018-09-02,25,1511
2018-09-03,38,1599
2018-09-04,34,1569
2018-09-05,41,1592
2018-09-06,33,1604
2018-09-07,22,1605
2018-09-08,35,1518
2018-09-09,34,1554
2018-09-10,25,1638
2018-09-11,23,1592
2018-09-12,22,1593
2018-09-13,37,1650
2018-09-14,21,1583
2018-09-15,27,1538
2018-09-16,19,1502
2018-09-17,23,1634
2018-09-18,25,1592
2018-09-19,19,1544
2018-09-20,29,1555
2018-09-21,20,1574
2018-09-22,23,1446
2018-09-23,24,1452
2018-09-24,36,1570
2018-09-25,27,1546
2018-09-26,24,1585
2018-09-27,21,1561
2018-09-28,26,1518
2018-09-29,27,1480
2018-09-30,34,1452
2018-10-01,26,1547
2018-10-02,27,1517
2018-10-03,35,1514
2018-10-04,17,1512
2018-10-05,23,1535
2018-10-06,30,1501
2018-10-07,39,1435
2018-10-08,35,1623
2018-10-09,21,1582
2018-10-10,22,1576
2018-10-11,27,1529
2018-10-12,22,1493
2018-10-13,30,1466
2018-10-14,40,1494
2018-10-15,27,1588
2018-10-16,22,1561
2018-10-17,30,1507
2018-10-18,26,1571
2018-10-19,26,1543
2018-10-20,27,1481
2018-10-21,27,1501
2018-10-22,22,1533
2018-10-23,20,1560
2018-10-24,23,1524
2018-10-25,19,1551
2018-10-26,26,1526
2018-10-27,24,1502
2018-10-28,26,1419
2018-10-29,29,1532
2018-10-30,33,1531
2018-10-31,21,1518
2018-11-01,21,1558
2018-11-02,29,1535
2018-11-03,17,1457
2018-11-04,28,1479
2018-11-05,20,1545
2018-11-06,17,1511
2018-11-07,204,1535
2018-11-08,86,1666
2018-11-09,54,1576
2018-11-10,37,1569
2018-11-11,42,1602
2018-11-12,31,1774
2018-11-13,30,1717
2018-11-14,31,1769
2018-11-15,30,1691
2018-11-16,23,1737
2018-11-17,22,1610
2018-11-18,33,1659
2018-11-19,27,1765
2018-11-20,29,1703
2018-11-21,30,1721
2018-11-22,22,1714
2018-11-23,13,1654
2018-11-24,27,1539
2018-11-25,53,1637
2018-11-26,47,1750
2018-11-27,37,1710
2018-11-28,44,1727
2018-11-29,43,1769
2018-11-30,32,1697
2018-12-01,39,1629
2018-12-02,56,1642
2018-12-03,76,1829
2018-12-04,47,1800
2018-12-05,50,1830
2018-12-06,41,1825
2018-12-07,27,1716
2018-12-08,45,1705
2018-12-09,33,1782
2018-12-10,36,1804
2018-12-11,34,1786
2018-12-12,31,1794
2018-12-13,29,1781
2018-12-14,42,1777
2018-12-15,41,1700
2018-12-16,52,1757
2018-12-17,26,1833
2018-12-18,35,1788
2018-12-19,38,1747
2018-12-20,48,1865
2018-12-21,26,1715
2018-12-22,30,1640
2018-12-23,40,1608
2018-12-24,23,1690
2018-12-25,31,1607
2018-12-26,38,1722
2018-12-27,55,1771
2018-12-28,34,1711
2018-12-29,49,1650
2018-12-30,47,1667
2018-12-31,27,1596
2019-01-01,52,1704
2019-01-02,51,1820
2019-01-03,31,1827
2019-01-04,31,1763
2019-01-05,35,1763
2019-01-06,58,1706
2019-01-07,39,1877
2019-01-08,29,1842
2019-01-09,26,1853
2019-01-10,28,1816
2019-01-11,30,1804
2019-01-12,47,1737
2019-01-13,43,1759
2019-01-14,33,1858
2019-01-15,30,1894
2019-01-16,28,1867
2019-01-17,43,1829
2019-01-18,58,1792
2019-01-19,55,1782
2019-01-20,57,1746
2019-01-21,43,1901
2019-01-22,31,1860
2019-01-23,88,1877
2019-01-24,59,1827
2019-01-25,45,1890
2019-01-26,37,1739
2019-01-27,46,1778
2019-01-28,34,1907
2019-01-29,34,1884
2019-01-30,34,1899
2019-01-31,34,1846
2019-02-01,36,1863
2019-02-02,45,1728
2019-02-03,44,1728
2019-02-04,29,1762
2019-02-05,31,1799
2019-02-06,29,1788
2019-02-07,36,1781
2019-02-08,31,1803
2019-02-09,34,1798
2019-02-10,40,1794
2019-02-11,37,1936
2019-02-12,33,1856
2019-02-13,32,1934
2019-02-14,35,1867
2019-02-15,37,1902
2019-02-16,57,1770
2019-02-17,54,1811
2019-02-18,39,2018
2019-02-19,45,1884
2019-02-20,27,1918
2019-02-21,41,1874
2019-02-22,24,1901
2019-02-23,33,1848
2019-02-24,39,1835
2019-02-25,34,1924
2019-02-26,62,1918
2019-02-27,42,1954
2019-02-28,18,1988
2019-03-01,31,1892
2019-03-02,45,1796
2019-03-03,80,1887
2019-03-04,76,1942
2019-03-05,68,1959
2019-03-06,49,1955
2019-03-07,45,1952
2019-03-08,56,1935
2019-03-09,56,1898
2019-03-10,56,1919
2019-03-11,36,2022
2019-03-12,32,2000
2019-03-13,29,2037
2019-03-14,31,1982
2019-03-15,40,1997
2019-03-16,47,1885
2019-03-17,50,1939
2019-03-18,55,2061
2019-03-19,40,1947
2019-03-20,42,2057
2019-03-21,41,1977
2019-03-22,49,2000
2019-03-23,50,1885
2019-03-24,37,1950
2019-03-25,38,2069
2019-03-26,28,2043
2019-03-27,21,1979
2019-03-28,31,2058
2019-03-29,22,2037
2019-03-30,34,1922
2019-03-31,38,1931
2019-04-01,37,2111
2019-04-02,26,2044
2019-04-03,35,2108
2019-04-04,35,2028
2019-04-05,36,2013
2019-04-06,27,1905
2019-04-07,38,1998
2019-04-08,21,2118
2019-04-09,39,2070
2019-04-10,21,2043
2019-04-11,36,2073
2019-04-12,35,1997
2019-04-13,40,1944
2019-04-14,39,1921
2019-04-15,42,2104
2019-04-16,39,2085
2019-04-17,36,2062
2019-04-18,50,2058
2019-04-19,44,2005
2019-04-20,38,1947
2019-04-21,44,1931
2019-04-22,47,2074
2019-04-23,49,2115
2019-04-24,41,2096
2019-04-25,48,2078
2019-04-26,41,2079
2019-04-27,38,1947
2019-04-28,54,2024
2019-04-29,52,2131
2019-04-30,38,2103
2019-05-01,41,2037
2019-05-02,45,2083
2019-05-03,31,2089
2019-05-04,70,1996
2019-05-05,72,2096
2019-05-06,54,2194
2019-05-07,53,2174
2019-05-08,38,2190
2019-05-09,31,2131
2019-05-10,36,2095
2019-05-11,35,1994
2019-05-12,35,2132
2019-05-13,31,2149
2019-05-14,29,2120
2019-05-15,26,2109
2019-05-16,40,2194
2019-05-17,27,2062
2019-05-18,34,1988
2019-05-19,36,2058
2019-05-20,36,2194
2019-05-21,34,2123
2019-05-22,38,2132
2019-05-23,28,2102
2019-05-24,30,2133
2019-05-25,23,1974
2019-05-26,33,1967
2019-05-27,30,2144
2019-05-28,29,2132
2019-05-29,30,2122
2019-05-30,32,2090
2019-05-31,38,1987
2019-06-01,24,1950
2019-06-02,31,1985
2019-06-03,22,2070
2019-06-04,18,2078
2019-06-05,19,2021
2019-06-06,18,2030
2019-06-07,28,1904
2019-06-08,25,1932
2019-06-09,27,1905
2019-06-10,31,2109
2019-06-11,39,2145
2019-06-12,25,2076
2019-06-13,33,2027
2019-06-14,22,2052
2019-06-15,27,1985
2019-06-16,25,1874
2019-06-17,26,2127
2019-06-18,26,2034
2019-06-19,33,2104
2019-06-20,22,1999
2019-06-21,27,2010
2019-06-22,24,1844
2019-06-23,30,1854
2019-06-24,35,2089
2019-06-25,23,1975
2019-06-26,30,2039
2019-06-27,22,1946
2019-06-28,25,1971
2019-06-29,20,1860
2019-06-30,24,1840
2019-07-01,19,2031
2019-07-02,22,1976
2019-07-03,22,1958
2019-07-04,19,1980
2019-07-05,25,1982
2019-07-06,32,1816
2019-07-07,26,1932
2019-07-08,29,1987
2019-07-09,31,1965
2019-07-10,32,1969
2019-07-11,13,1943
2019-07-12,17,1954
2019-07-13,29,1801
2019-07-14,32,1818
2019-07-15,24,2024
2019-07-16,26,2000
2019-07-17,15,1961
2019-07-18,20,2008
2019-07-19,29,1930
2019-07-20,19,1777
2019-07-21,31,1858
2019-07-22,22,2018
2019-07-23,27,1960
2019-07-24,21,1929
2019-07-25,24,1917
2019-07-26,19,1943
2019-07-27,28,1803
2019-07-28,29,1883
2019-07-29,20,1936
2019-07-30,21,1942
2019-07-31,10,1908
2019-08-01,13,2008
2019-08-02,24,1908
2019-08-03,22,1843
2019-08-04,26,1814
2019-08-05,24,1944
2019-08-06,32,1917
2019-08-07,28,1925
2019-08-08,19,1897
2019-08-09,22,1930
2019-08-10,21,1728
2019-08-11,26,1829
2019-08-12,24,1863
2019-08-13,13,1942
2019-08-14,22,1929
2019-08-15,23,1898
2019-08-16,25,1851
2019-08-17,23,1835
2019-08-18,27,1863
2019-08-19,19,1963
2019-08-20,21,1974
2019-08-21,18,1898
2019-08-22,28,1866
2019-08-23,27,1896
2019-08-24,24,1757
2019-08-25,15,1825
2019-08-26,21,1993
2019-08-27,25,1967
2019-08-28,17,1961
2019-08-29,16,2007
2019-08-30,15,1894
2019-08-31,21,1841
2019-09-01,22,1837
2019-09-02,11,2007
2019-09-03,21,1998
2019-09-04,23,1933
2019-09-05,29,1998
2019-09-06,14,1958
2019-09-07,16,1880
2019-09-08,11,1848
2019-09-09,14,1942
2019-09-10,21,2006
2019-09-11,14,2017
2019-09-12,17,2011
2019-09-13,15,1855
2019-09-14,18,1822
2019-09-15,35,1859
2019-09-16,22,2025
2019-09-17,11,1973
2019-09-18,17,1971
2019-09-19,18,1965
2019-09-20,17,1976
2019-09-21,15,1815
2019-09-22,14,1833
2019-09-23,16,1997
2019-09-24,19,1883
2019-09-25,18,1928
2019-09-26,15,1888
2019-09-27,17,1885
2019-09-28,17,1824
2019-09-29,16,1884
2019-09-30,15,2028
2019-10-01,18,1867
2019-10-02,24,1874
2019-10-03,14,1877
2019-10-04,17,1897
2019-10-05,27,1760
2019-10-06,17,1837
2019-10-07,23,1945
2019-10-08,18,1992